Mount Ida, AR

4:36 AM CDT on April 20, 2018 (GMT -0500)
Mount Ida

Weather History for KMWT - March, 2014

Change the Weather History Date:

Thursday, March 6, 2014

  Actual Average (KHOT) Record (KHOT)
Temperature  
Mean Temperature 44 °F -  
Max Temperature 57 °F 61 °F 83 °F (1956)
Min Temperature 30 °F 36 °F 18 °F (2015)
Degree Days  
Heating Degree Days 20    
Moisture  
Dew Point 30 °F    
Average Humidity 68    
Maximum Humidity 96    
Minimum Humidity 28    
Precipitation  
Precipitation 0.00 in - - ()
Sea Level Pressure  
Sea Level Pressure 30.12 in    
Wind  
Wind Speed 2 mph (NW)    
Max Wind Speed 6 mph    
Max Gust Speed -    
Visibility 9 miles    
Events      
Averages and records for this station are not official NWS values.
T = Trace of Precipitation, MM = Missing Value Source: NWS Daily Summary

Daily Weather History Graph

Daily Weather History Graph

Search for Another Location

Airport or City:

Astronomy

Mar. 06, 2014 Rise Set
Actual Time 6:36 AM CST 6:14 PM CST
Civil Twilight 6:11 AM CST 6:39 PM CST
Nautical Twilight 5:42 AM CST 7:08 PM CST
Astronomical Twilight 5:13 AM CST 7:38 PM CST
Moon 9:59 AM CST (3/6) No Moon Set
Length of Visible Light 12h 28m
Length of Day
11h 37m
Waxing Crescent, 32% of the Moon is Illuminated
Mar 6
Waxing Crescent
Mar 8
First Quarter
Mar 16
Full
Mar 23
Last Quarter
Mar 30
New

Hourly Weather History & Observations

Time (CST) Temp. Windchill Dew Point Humidity Pressure Visibility Wind Dir Wind Speed Gust Speed Precip Events Conditions
12:53 AM 35.1 °F 32.2 °F 30.9 °F 85% 30.16 in 10.0 mi NW 3.5 mph - N/A   Overcast
1:53 AM 35.1 °F 32.2 °F 30.9 °F 85% 30.17 in 9.0 mi NNW 3.5 mph - N/A   Overcast
2:53 AM 35.1 °F - 30.9 °F 85% 30.14 in 8.0 mi Calm Calm - N/A   Overcast
3:53 AM 34.0 °F - 30.0 °F 85% 30.13 in 7.0 mi Calm Calm - N/A   Overcast
4:53 AM 34.0 °F - 30.0 °F 85% 30.12 in 7.0 mi Calm Calm - N/A   Mostly Cloudy
5:53 AM 34.0 °F - 30.0 °F 85% 30.14 in 7.0 mi Calm Calm - N/A   Overcast
6:53 AM 32.0 °F - 28.9 °F 88% 30.16 in 4.0 mi Calm Calm - N/A   Clear
7:53 AM 33.1 °F - 30.0 °F 89% 30.18 in 4.0 mi Calm Calm - N/A   Clear
8:53 AM 37.0 °F 34.5 °F 30.9 °F 79% 30.20 in 7.0 mi Variable 3.5 mph - N/A   Partly Cloudy
9:53 AM 43.0 °F 41.3 °F 28.9 °F 58% 30.19 in 10.0 mi Variable 3.5 mph - N/A   Clear
10:53 AM 46.0 °F 43.9 °F 27.0 °F 47% 30.16 in 10.0 mi Variable 4.6 mph - N/A   Clear
11:53 AM 50.0 °F - 25.0 °F 38% 30.14 in 10.0 mi Variable 3.5 mph - N/A   Clear
12:53 PM 51.1 °F - 26.1 °F 38% 30.12 in 10.0 mi Variable 5.8 mph - N/A   Clear
1:53 PM 54.0 °F - 24.1 °F 31% 30.09 in 10.0 mi Variable 5.8 mph - N/A   Clear
2:53 PM 55.0 °F - 24.1 °F 30% 30.08 in 10.0 mi Variable 4.6 mph - N/A   Clear
3:53 PM 57.0 °F - 24.1 °F 28% 30.07 in 10.0 mi North - - N/A   Clear
4:53 PM 54.0 °F - 33.1 °F 45% 30.06 in 10.0 mi Variable 3.5 mph - N/A   Clear
5:53 PM 50.0 °F - 34.0 °F 54% 30.07 in 10.0 mi Calm Calm - N/A   Clear
6:53 PM 45.0 °F - 34.0 °F 65% 30.07 in 10.0 mi Calm Calm - N/A   Clear
7:53 PM 41.0 °F - 34.0 °F 76% 30.07 in 10.0 mi Calm Calm - N/A   Clear
8:53 PM 37.0 °F - 34.0 °F 89% 30.06 in 10.0 mi Calm Calm - N/A   Clear
9:53 PM 34.0 °F - 30.9 °F 89% 30.07 in 10.0 mi Calm Calm - N/A   Clear
10:53 PM 32.0 °F - 30.0 °F 92% 30.08 in 8.0 mi Calm Calm - N/A   Clear
11:53 PM 30.0 °F - 28.9 °F 96% 30.09 in 7.0 mi Calm Calm - N/A   Clear